Retour au catalogue

CZ-4C DEB

ActifPO
NORAD 43409·DEBRIS·🇨🇳 China

Lancé Sep 23, 2013 depuis Taiyuan Satellite Launch Center

Loading…

Prochains Passages (prochaines 24 heures)

TLE

FraisSource: Space-Track

Époque: Sep 14, 2026, 05:28 UTC

1 43409U 13052D   26257.22803483  .00000156  00000-0  15666-3 0  9992
2 43409  98.7811 358.9542 0236015  96.6692 266.1381 13.78127320643528

Suivez CZ-4C DEB en temps réel avec AllMySat

Download on the App Store